Year,Month,Day,Hour,Minute,Value (Times are PST for temperature in C)
2020,08,18,00,00,18.80
2020,08,18,00,01,18.80
2020,08,18,00,02,18.80
2020,08,18,00,03,18.80
2020,08,18,00,04,18.80
2020,08,18,00,05,18.80
2020,08,18,00,06,18.80
2020,08,18,00,07,18.80
2020,08,18,00,08,18.70
2020,08,18,00,09,18.70
2020,08,18,00,10,18.70
2020,08,18,00,11,18.70
2020,08,18,00,12,18.70
2020,08,18,00,13,18.70
2020,08,18,00,14,18.70
2020,08,18,00,15,18.70
2020,08,18,00,16,18.70
2020,08,18,00,17,18.70
2020,08,18,00,18,18.60
2020,08,18,00,19,18.60
2020,08,18,00,20,18.60
2020,08,18,00,21,18.60
2020,08,18,00,22,18.60
2020,08,18,00,23,18.60
2020,08,18,00,24,18.60
2020,08,18,00,25,18.60
2020,08,18,00,26,18.50
2020,08,18,00,27,18.50
2020,08,18,00,28,18.50
2020,08,18,00,29,18.50
2020,08,18,00,30,18.50
2020,08,18,00,31,18.50
2020,08,18,00,32,18.50
2020,08,18,00,33,18.50
2020,08,18,00,34,18.50
2020,08,18,00,35,18.50
2020,08,18,00,36,18.40
2020,08,18,00,37,18.40
2020,08,18,00,38,18.40
2020,08,18,00,39,18.40
2020,08,18,00,40,18.40
2020,08,18,00,41,18.50
2020,08,18,00,42,18.50
2020,08,18,00,43,18.50
2020,08,18,00,44,18.50
2020,08,18,00,45,18.50
2020,08,18,00,46,18.40
2020,08,18,00,47,18.40
2020,08,18,00,48,18.40
2020,08,18,00,49,18.40
2020,08,18,00,50,18.40
2020,08,18,00,51,18.40
2020,08,18,00,52,18.40
2020,08,18,00,53,18.40
2020,08,18,00,54,18.30
2020,08,18,00,55,18.30
2020,08,18,00,56,18.30
2020,08,18,00,57,18.20
2020,08,18,00,58,18.20
2020,08,18,00,59,18.20
2020,08,18,01,00,18.20
2020,08,18,01,01,18.20
2020,08,18,01,02,18.20
2020,08,18,01,03,18.20
2020,08,18,01,04,18.10
2020,08,18,01,05,18.10
2020,08,18,01,06,18.10
2020,08,18,01,07,18.00
2020,08,18,01,08,18.00
2020,08,18,01,09,18.00
2020,08,18,01,10,18.00
2020,08,18,01,11,18.00
2020,08,18,01,12,18.00
2020,08,18,01,13,18.00
2020,08,18,01,14,18.00
2020,08,18,01,15,18.00
2020,08,18,01,16,17.90
2020,08,18,01,17,17.90
2020,08,18,01,18,17.90
2020,08,18,01,19,17.90
2020,08,18,01,20,17.90
2020,08,18,01,21,17.80
2020,08,18,01,22,17.80
2020,08,18,01,23,17.80
2020,08,18,01,24,17.80
2020,08,18,01,25,17.80
2020,08,18,01,26,17.80
2020,08,18,01,27,17.80
2020,08,18,01,28,17.80
2020,08,18,01,29,17.80
2020,08,18,01,30,17.70
2020,08,18,01,31,17.70
2020,08,18,01,32,17.70
2020,08,18,01,33,17.70
2020,08,18,01,34,17.70
2020,08,18,01,35,17.70
2020,08,18,01,36,17.70
2020,08,18,01,37,17.70
2020,08,18,01,38,17.70
2020,08,18,01,39,17.70
2020,08,18,01,40,17.60
2020,08,18,01,41,17.60
2020,08,18,01,42,17.60
2020,08,18,01,43,17.60
2020,08,18,01,44,17.50
2020,08,18,01,45,17.50
2020,08,18,01,46,17.50
2020,08,18,01,47,17.50
2020,08,18,01,48,17.50
2020,08,18,01,49,17.40
2020,08,18,01,50,17.40
2020,08,18,01,51,17.40
2020,08,18,01,52,17.40
2020,08,18,01,53,17.30
2020,08,18,01,54,17.30
2020,08,18,01,55,17.30
2020,08,18,01,56,17.30
2020,08,18,01,57,17.30
2020,08,18,01,58,17.30
2020,08,18,01,59,17.30
2020,08,18,02,00,17.30
2020,08,18,02,01,17.30
2020,08,18,02,02,17.30
2020,08,18,02,03,17.30
2020,08,18,02,04,17.30
2020,08,18,02,05,17.30
2020,08,18,02,06,17.30
2020,08,18,02,07,17.30
2020,08,18,02,08,17.30
2020,08,18,02,09,17.30
2020,08,18,02,10,17.20
2020,08,18,02,11,17.20
2020,08,18,02,12,17.20
2020,08,18,02,13,17.10
2020,08,18,02,14,17.10
2020,08,18,02,15,17.10
2020,08,18,02,16,17.10
2020,08,18,02,17,17.10
2020,08,18,02,18,17.10
2020,08,18,02,19,17.10
2020,08,18,02,20,17.10
2020,08,18,02,21,17.10
2020,08,18,02,22,17.10
2020,08,18,02,23,17.10
2020,08,18,02,24,17.10
2020,08,18,02,25,17.20
2020,08,18,02,26,17.10
2020,08,18,02,27,17.10
2020,08,18,02,28,17.10
2020,08,18,02,29,17.10
2020,08,18,02,30,17.10
2020,08,18,02,31,17.10
2020,08,18,02,32,17.00
2020,08,18,02,33,17.00
2020,08,18,02,34,17.00
2020,08,18,02,35,17.00
2020,08,18,02,36,17.00
2020,08,18,02,37,17.00
2020,08,18,02,38,17.00
2020,08,18,02,39,17.00
2020,08,18,02,40,17.00
2020,08,18,02,41,17.00
2020,08,18,02,42,17.00
2020,08,18,02,43,17.00
2020,08,18,02,44,16.90
2020,08,18,02,45,16.90
2020,08,18,02,46,16.90
2020,08,18,02,47,16.90
2020,08,18,02,48,16.90
2020,08,18,02,49,16.80
2020,08,18,02,50,16.80
2020,08,18,02,51,16.80
2020,08,18,02,52,16.80
2020,08,18,02,53,16.80
2020,08,18,02,54,16.80
2020,08,18,02,55,16.80
2020,08,18,02,56,16.80
2020,08,18,02,57,16.80
2020,08,18,02,58,16.80
2020,08,18,02,59,16.70
2020,08,18,03,00,16.70
2020,08,18,03,01,16.70
2020,08,18,03,02,16.70
2020,08,18,03,03,16.70
2020,08,18,03,04,16.70
2020,08,18,03,05,16.70
2020,08,18,03,06,16.70
2020,08,18,03,07,16.70
2020,08,18,03,08,16.70
2020,08,18,03,09,16.70
2020,08,18,03,10,16.70
2020,08,18,03,11,16.70
2020,08,18,03,12,16.70
2020,08,18,03,13,16.70
2020,08,18,03,14,16.70
2020,08,18,03,15,16.70
2020,08,18,03,16,16.70
2020,08,18,03,17,16.70
2020,08,18,03,18,16.70
2020,08,18,03,19,16.70
2020,08,18,03,20,16.70
2020,08,18,03,21,16.70
2020,08,18,03,22,16.60
2020,08,18,03,23,16.70
2020,08,18,03,24,16.70
2020,08,18,03,25,16.60
2020,08,18,03,26,16.60
2020,08,18,03,27,16.70
2020,08,18,03,28,16.60
2020,08,18,03,29,16.60
2020,08,18,03,30,16.60
2020,08,18,03,31,16.60
2020,08,18,03,32,16.60
2020,08,18,03,33,16.60
2020,08,18,03,34,16.60
2020,08,18,03,35,16.60
2020,08,18,03,36,16.60
2020,08,18,03,37,16.60
2020,08,18,03,38,16.60
2020,08,18,03,39,16.50
2020,08,18,03,40,16.50
2020,08,18,03,41,16.50
2020,08,18,03,42,16.50
2020,08,18,03,43,16.50
2020,08,18,03,44,16.50
2020,08,18,03,45,16.50
2020,08,18,03,46,16.40
2020,08,18,03,47,16.40
2020,08,18,03,48,16.40
2020,08,18,03,49,16.40
2020,08,18,03,50,16.40
2020,08,18,03,51,16.40
2020,08,18,03,52,16.30
2020,08,18,03,53,16.30
2020,08,18,03,54,16.30
2020,08,18,03,55,16.30
2020,08,18,03,56,16.30
2020,08,18,03,57,16.30
2020,08,18,03,58,16.30
2020,08,18,03,59,16.30
2020,08,18,04,00,16.30
2020,08,18,04,01,16.30
2020,08,18,04,02,16.30
2020,08,18,04,03,16.30
2020,08,18,04,04,16.30
2020,08,18,04,05,16.20
2020,08,18,04,06,16.20
2020,08,18,04,07,16.20
2020,08,18,04,08,16.20
2020,08,18,04,09,16.20
2020,08,18,04,10,16.20
2020,08,18,04,11,16.20
2020,08,18,04,12,16.20
2020,08,18,04,13,16.20
2020,08,18,04,14,16.10
2020,08,18,04,15,16.10
2020,08,18,04,16,16.10
2020,08,18,04,17,16.10
2020,08,18,04,18,16.10
2020,08,18,04,19,16.10
2020,08,18,04,20,16.10
2020,08,18,04,21,16.10
2020,08,18,04,22,16.10
2020,08,18,04,23,16.10
2020,08,18,04,24,16.10
2020,08,18,04,25,16.10
2020,08,18,04,26,16.10
2020,08,18,04,27,16.10
2020,08,18,04,28,16.10
2020,08,18,04,29,16.10
2020,08,18,04,30,16.10
2020,08,18,04,31,16.10
2020,08,18,04,32,16.10
2020,08,18,04,33,16.10
2020,08,18,04,34,16.00
2020,08,18,04,35,16.00
2020,08,18,04,36,16.00
2020,08,18,04,37,15.90
2020,08,18,04,38,15.90
2020,08,18,04,39,15.90
2020,08,18,04,40,16.00
2020,08,18,04,41,16.00
2020,08,18,04,42,15.90
2020,08,18,04,43,16.00
2020,08,18,04,44,15.90
2020,08,18,04,45,15.90
2020,08,18,04,46,15.90
2020,08,18,04,47,15.90
2020,08,18,04,48,15.80
2020,08,18,04,49,15.80
2020,08,18,04,50,15.80
2020,08,18,04,51,15.80
2020,08,18,04,52,15.80
2020,08,18,04,53,15.80
2020,08,18,04,54,15.80
2020,08,18,04,55,15.80
2020,08,18,04,56,15.80
2020,08,18,04,57,15.80
2020,08,18,04,58,15.80
2020,08,18,04,59,15.80
2020,08,18,05,00,15.80
2020,08,18,05,01,15.80
2020,08,18,05,02,15.80
2020,08,18,05,03,15.80
2020,08,18,05,04,15.80
2020,08,18,05,05,15.80
2020,08,18,05,06,15.80
2020,08,18,05,07,15.80
2020,08,18,05,08,15.70
2020,08,18,05,09,15.70
2020,08,18,05,10,15.70
2020,08,18,05,11,15.70
2020,08,18,05,12,15.60
2020,08,18,05,13,15.60
2020,08,18,05,14,15.60
2020,08,18,05,15,15.60
2020,08,18,05,16,15.60
2020,08,18,05,17,15.60
2020,08,18,05,18,15.60
2020,08,18,05,19,15.60
2020,08,18,05,20,15.60
2020,08,18,05,21,15.60
2020,08,18,05,22,15.60
2020,08,18,05,23,15.60
2020,08,18,05,24,15.60
2020,08,18,05,25,15.60
2020,08,18,05,26,15.60
2020,08,18,05,27,15.60
2020,08,18,05,28,15.60
2020,08,18,05,29,15.60
2020,08,18,05,30,15.60
2020,08,18,05,31,15.50
2020,08,18,05,32,15.50
2020,08,18,05,33,15.50
2020,08,18,05,34,15.60
2020,08,18,05,35,15.60
2020,08,18,05,36,15.60
2020,08,18,05,37,15.60
2020,08,18,05,38,15.60
2020,08,18,05,39,15.60
2020,08,18,05,40,15.70
2020,08,18,05,41,15.70
2020,08,18,05,42,15.80
2020,08,18,05,43,15.80
2020,08,18,05,44,15.80
2020,08,18,05,45,15.80
2020,08,18,05,46,15.90
2020,08,18,05,47,15.90
2020,08,18,05,48,16.00
2020,08,18,05,49,16.10
2020,08,18,05,50,16.10
2020,08,18,05,51,16.10
2020,08,18,05,52,16.10
2020,08,18,05,53,16.20
2020,08,18,05,54,16.30
2020,08,18,05,55,16.40
2020,08,18,05,56,16.50
2020,08,18,05,57,16.70
2020,08,18,05,58,16.80
2020,08,18,05,59,16.90
2020,08,18,06,00,17.00
2020,08,18,06,01,17.00
2020,08,18,06,02,17.10
2020,08,18,06,03,17.10
2020,08,18,06,04,17.10
2020,08,18,06,05,17.20
2020,08,18,06,06,17.20
2020,08,18,06,07,17.20
2020,08,18,06,08,17.30
2020,08,18,06,09,17.40
2020,08,18,06,10,17.50
2020,08,18,06,11,17.60
2020,08,18,06,12,17.60
2020,08,18,06,13,17.70
2020,08,18,06,14,17.70
2020,08,18,06,15,17.80
2020,08,18,06,16,18.00
2020,08,18,06,17,18.10
2020,08,18,06,18,18.30
2020,08,18,06,19,18.40
2020,08,18,06,20,18.50
2020,08,18,06,21,18.60
2020,08,18,06,22,18.60
2020,08,18,06,23,18.80
2020,08,18,06,24,18.80
2020,08,18,06,25,18.90
2020,08,18,06,26,19.10
2020,08,18,06,27,19.20
2020,08,18,06,28,19.40
2020,08,18,06,29,19.50
2020,08,18,06,30,19.60
2020,08,18,06,31,19.70
2020,08,18,06,32,19.70
2020,08,18,06,33,19.80
2020,08,18,06,34,19.90
2020,08,18,06,35,19.90
2020,08,18,06,36,20.00
2020,08,18,06,37,20.00
2020,08,18,06,38,19.90
2020,08,18,06,39,19.90
2020,08,18,06,40,20.00
2020,08,18,06,41,20.00
2020,08,18,06,42,19.90
2020,08,18,06,43,19.90
2020,08,18,06,44,19.90
2020,08,18,06,45,19.80
2020,08,18,06,46,19.80
2020,08,18,06,47,19.70
2020,08,18,06,48,19.80
2020,08,18,06,49,19.80
2020,08,18,06,50,19.90
2020,08,18,06,51,19.90
2020,08,18,06,52,20.00
2020,08,18,06,53,20.10
2020,08,18,06,54,20.10
2020,08,18,06,55,20.20
2020,08,18,06,56,20.30
2020,08,18,06,57,20.20
2020,08,18,06,58,20.20
2020,08,18,06,59,20.20
2020,08,18,07,00,20.20
2020,08,18,07,01,20.20
2020,08,18,07,02,20.10
2020,08,18,07,03,20.10
2020,08,18,07,04,20.10
2020,08,18,07,05,20.10
2020,08,18,07,06,20.20
2020,08,18,07,07,20.10
2020,08,18,07,08,20.20
2020,08,18,07,09,20.20
2020,08,18,07,10,20.30
2020,08,18,07,11,20.40
2020,08,18,07,12,20.40
2020,08,18,07,13,20.50
2020,08,18,07,14,20.60
2020,08,18,07,15,20.60
2020,08,18,07,16,20.60
2020,08,18,07,17,20.60
2020,08,18,07,18,20.60
2020,08,18,07,19,20.60
2020,08,18,07,20,20.70
2020,08,18,07,21,20.70
2020,08,18,07,22,20.70
2020,08,18,07,23,20.80
2020,08,18,07,24,20.80
2020,08,18,07,25,20.80
2020,08,18,07,26,20.80
2020,08,18,07,27,20.80
2020,08,18,07,28,20.80
2020,08,18,07,29,20.80
2020,08,18,07,30,20.80
2020,08,18,07,31,20.80
2020,08,18,07,32,20.70
2020,08,18,07,33,20.70
2020,08,18,07,34,20.60
2020,08,18,07,35,20.60
2020,08,18,07,36,20.50
2020,08,18,07,37,20.50
2020,08,18,07,38,20.40
2020,08,18,07,39,20.40
2020,08,18,07,40,20.40
2020,08,18,07,41,20.40
2020,08,18,07,42,20.40
2020,08,18,07,43,20.30
2020,08,18,07,44,20.30
2020,08,18,07,45,20.30
2020,08,18,07,46,20.20
2020,08,18,07,47,20.20
2020,08,18,07,48,20.10
2020,08,18,07,49,20.10
2020,08,18,07,50,20.00
2020,08,18,07,51,20.00
2020,08,18,07,52,20.00
2020,08,18,07,53,19.90
2020,08,18,07,54,19.80
2020,08,18,07,55,19.80
2020,08,18,07,56,19.70
2020,08,18,07,57,19.70
2020,08,18,07,58,19.70
2020,08,18,07,59,19.70
2020,08,18,08,00,19.70
2020,08,18,08,01,19.70
2020,08,18,08,02,19.70
2020,08,18,08,03,19.70
2020,08,18,08,04,19.70
2020,08,18,08,05,19.80
2020,08,18,08,06,19.80
2020,08,18,08,07,19.90
2020,08,18,08,08,20.00
2020,08,18,08,09,20.00
2020,08,18,08,10,20.00
2020,08,18,08,11,20.00
2020,08,18,08,12,19.90
2020,08,18,08,13,19.90
2020,08,18,08,14,19.90
2020,08,18,08,15,19.80
2020,08,18,08,16,19.80
2020,08,18,08,17,19.80
2020,08,18,08,18,19.80
2020,08,18,08,19,19.90
2020,08,18,08,20,19.90
2020,08,18,08,21,19.90
2020,08,18,08,22,19.90
2020,08,18,08,23,19.90
2020,08,18,08,24,20.00
2020,08,18,08,25,20.10
2020,08,18,08,26,20.20
2020,08,18,08,27,20.30
2020,08,18,08,28,20.30
2020,08,18,08,29,20.30
2020,08,18,08,30,20.40
2020,08,18,08,31,20.60
2020,08,18,08,32,20.60
2020,08,18,08,33,20.70
2020,08,18,08,34,20.70
2020,08,18,08,35,20.80
2020,08,18,08,36,20.80
2020,08,18,08,37,20.90
2020,08,18,08,38,20.90
2020,08,18,08,39,21.00
2020,08,18,08,40,21.10
2020,08,18,08,41,21.20
2020,08,18,08,42,21.30
2020,08,18,08,43,21.40
2020,08,18,08,44,21.40
2020,08,18,08,45,21.40
2020,08,18,08,46,21.50
2020,08,18,08,47,21.50
2020,08,18,08,48,21.50
2020,08,18,08,49,21.40
2020,08,18,08,50,21.50
2020,08,18,08,51,21.50
2020,08,18,08,52,21.60
2020,08,18,08,53,21.70
2020,08,18,08,54,21.80
2020,08,18,08,55,21.80
2020,08,18,08,56,21.90
2020,08,18,08,57,21.90
2020,08,18,08,58,22.00
2020,08,18,08,59,22.00
2020,08,18,09,00,22.10
2020,08,18,09,01,22.10
2020,08,18,09,02,22.10
2020,08,18,09,03,22.10
2020,08,18,09,04,22.10
2020,08,18,09,05,22.10
2020,08,18,09,06,22.20
2020,08,18,09,07,22.20
2020,08,18,09,08,22.20
2020,08,18,09,09,22.10
2020,08,18,09,10,22.00
2020,08,18,09,11,21.90
2020,08,18,09,12,21.80
2020,08,18,09,13,21.80
2020,08,18,09,14,21.80
2020,08,18,09,15,21.90
2020,08,18,09,16,21.90
2020,08,18,09,17,22.00
2020,08,18,09,18,22.10
2020,08,18,09,19,22.10
2020,08,18,09,20,22.10
2020,08,18,09,21,22.10
2020,08,18,09,22,22.20
2020,08,18,09,23,22.10
2020,08,18,09,24,22.10
2020,08,18,09,25,22.10
2020,08,18,09,26,22.10
2020,08,18,09,27,22.10
2020,08,18,09,28,22.10
2020,08,18,09,29,22.10
2020,08,18,09,30,22.10
2020,08,18,09,31,22.10
2020,08,18,09,32,22.20
2020,08,18,09,33,22.20
2020,08,18,09,34,22.30
2020,08,18,09,35,22.40
2020,08,18,09,36,22.50
2020,08,18,09,37,22.60
2020,08,18,09,38,22.60
2020,08,18,09,39,22.70
2020,08,18,09,40,22.70
2020,08,18,09,41,22.80
2020,08,18,09,42,22.80
2020,08,18,09,43,22.90
2020,08,18,09,44,22.90
2020,08,18,09,45,23.00
2020,08,18,09,46,23.00
2020,08,18,09,47,23.00
2020,08,18,09,48,22.90
2020,08,18,09,49,22.90
2020,08,18,09,50,22.80
2020,08,18,09,51,22.80
2020,08,18,09,52,22.70
2020,08,18,09,53,22.70
2020,08,18,09,54,22.60
2020,08,18,09,55,22.60
2020,08,18,09,56,22.60
2020,08,18,09,57,22.60
2020,08,18,09,58,22.60
2020,08,18,09,59,22.70
2020,08,18,10,00,22.70
2020,08,18,10,01,22.80
2020,08,18,10,02,22.90
2020,08,18,10,03,23.00
2020,08,18,10,04,23.10
2020,08,18,10,05,23.20
2020,08,18,10,06,23.30
2020,08,18,10,07,23.20
2020,08,18,10,08,23.20
2020,08,18,10,09,23.20
2020,08,18,10,10,23.20
2020,08,18,10,11,23.20
2020,08,18,10,12,23.10
2020,08,18,10,13,23.10
2020,08,18,10,14,23.00
2020,08,18,10,15,23.00
2020,08,18,10,16,22.90
2020,08,18,10,17,22.90
2020,08,18,10,18,22.90
2020,08,18,10,19,23.00
2020,08,18,10,20,23.00
2020,08,18,10,21,23.10
2020,08,18,10,22,23.10
2020,08,18,10,23,23.00
2020,08,18,10,24,22.90
2020,08,18,10,25,22.90
2020,08,18,10,26,22.90
2020,08,18,10,27,22.90
2020,08,18,10,28,23.00
2020,08,18,10,29,23.10
2020,08,18,10,30,23.10
2020,08,18,10,31,23.10
2020,08,18,10,32,23.10
2020,08,18,10,33,23.20
2020,08,18,10,34,23.20
2020,08,18,10,35,23.20
2020,08,18,10,36,23.30
2020,08,18,10,37,23.30
2020,08,18,10,38,23.40
2020,08,18,10,39,23.40
2020,08,18,10,40,23.40
2020,08,18,10,41,23.50
2020,08,18,10,42,23.40
2020,08,18,10,43,23.40
2020,08,18,10,44,23.40
2020,08,18,10,45,23.40
2020,08,18,10,46,23.50
2020,08,18,10,47,23.50
2020,08,18,10,48,23.50
2020,08,18,10,49,23.50
2020,08,18,10,50,23.40
2020,08,18,10,51,23.40
2020,08,18,10,52,23.40
2020,08,18,10,53,23.50
2020,08,18,10,54,23.50
2020,08,18,10,55,23.40
2020,08,18,10,56,23.30
2020,08,18,10,57,23.20
2020,08,18,10,58,23.20
2020,08,18,10,59,23.20
2020,08,18,11,00,23.20
2020,08,18,11,01,23.20
2020,08,18,11,02,23.20
2020,08,18,11,03,23.30
2020,08,18,11,04,23.30
2020,08,18,11,05,23.30
2020,08,18,11,06,23.30
2020,08,18,11,07,23.30
2020,08,18,11,08,23.30
2020,08,18,11,09,23.30
2020,08,18,11,10,23.30
2020,08,18,11,11,23.30
2020,08,18,11,12,23.30
2020,08,18,11,13,23.30
2020,08,18,11,14,23.30
2020,08,18,11,15,23.40
2020,08,18,11,16,23.40
2020,08,18,11,17,23.40
2020,08,18,11,18,23.40
2020,08,18,11,19,23.50
2020,08,18,11,20,23.60
2020,08,18,11,21,23.50
2020,08,18,11,22,23.50
2020,08,18,11,23,23.50
2020,08,18,11,24,23.60
2020,08,18,11,25,23.60
2020,08,18,11,26,23.60
2020,08,18,11,27,23.60
2020,08,18,11,28,23.60
2020,08,18,11,29,23.60
2020,08,18,11,30,23.60
2020,08,18,11,31,23.60
2020,08,18,11,32,23.60
2020,08,18,11,33,23.60
2020,08,18,11,34,23.70
2020,08,18,11,35,23.70
2020,08,18,11,36,23.60
2020,08,18,11,37,23.50
2020,08,18,11,38,23.50
2020,08,18,11,39,23.60
2020,08,18,11,40,23.60
2020,08,18,11,41,23.70
2020,08,18,11,42,23.70
2020,08,18,11,43,23.70
2020,08,18,11,44,23.70
2020,08,18,11,45,23.80
2020,08,18,11,46,23.80
2020,08,18,11,47,23.80
2020,08,18,11,48,23.90
2020,08,18,11,49,24.00
2020,08,18,11,50,24.00
2020,08,18,11,51,24.10
2020,08,18,11,52,24.10
2020,08,18,11,53,24.10
2020,08,18,11,54,24.10
2020,08,18,11,55,24.10
2020,08,18,11,56,24.10
2020,08,18,11,57,24.10
2020,08,18,11,58,24.10
2020,08,18,11,59,24.10
2020,08,18,12,00,24.10
2020,08,18,12,01,24.20
2020,08,18,12,02,24.20
2020,08,18,12,03,24.10
2020,08,18,12,04,24.10
2020,08,18,12,05,24.10
2020,08,18,12,06,24.10
2020,08,18,12,07,24.10
2020,08,18,12,08,24.10
2020,08,18,12,09,24.10
2020,08,18,12,10,24.10
2020,08,18,12,11,24.10
2020,08,18,12,12,24.10
2020,08,18,12,13,24.20
2020,08,18,12,14,24.20
2020,08,18,12,15,24.20
2020,08,18,12,16,24.20
2020,08,18,12,17,24.20
2020,08,18,12,18,24.30
2020,08,18,12,19,24.30
2020,08,18,12,20,24.40
2020,08,18,12,21,24.50
2020,08,18,12,22,24.60
2020,08,18,12,23,24.60
2020,08,18,12,24,24.70
2020,08,18,12,25,24.60
2020,08,18,12,26,24.50
2020,08,18,12,27,24.50
2020,08,18,12,28,24.50
2020,08,18,12,29,24.40
2020,08,18,12,30,24.40
2020,08,18,12,31,24.30
2020,08,18,12,32,24.30
2020,08,18,12,33,24.30
2020,08,18,12,34,24.30
2020,08,18,12,35,24.30
2020,08,18,12,36,24.40
2020,08,18,12,37,24.50
2020,08,18,12,38,24.60
2020,08,18,12,39,24.60
2020,08,18,12,40,24.70
2020,08,18,12,41,24.70
2020,08,18,12,42,24.70
2020,08,18,12,43,24.60
2020,08,18,12,44,24.50
2020,08,18,12,45,24.30
2020,08,18,12,46,24.30
2020,08,18,12,47,24.20
2020,08,18,12,48,24.10
2020,08,18,12,49,24.10
2020,08,18,12,50,24.10
2020,08,18,12,51,24.10
2020,08,18,12,52,24.10
2020,08,18,12,53,24.10
2020,08,18,12,54,24.10
2020,08,18,12,55,24.10
2020,08,18,12,56,24.00
2020,08,18,12,57,24.10
2020,08,18,12,58,24.20
2020,08,18,12,59,24.40
2020,08,18,13,00,24.50
2020,08,18,13,01,24.50
2020,08,18,13,02,24.60
2020,08,18,13,03,24.60
2020,08,18,13,04,24.70
2020,08,18,13,05,24.70
2020,08,18,13,06,24.80
2020,08,18,13,07,24.90
2020,08,18,13,08,25.00
2020,08,18,13,09,25.10
2020,08,18,13,10,25.10
2020,08,18,13,11,25.10
2020,08,18,13,12,25.10
2020,08,18,13,13,25.10
2020,08,18,13,14,25.10
2020,08,18,13,15,25.10
2020,08,18,13,16,25.10
2020,08,18,13,17,25.20
2020,08,18,13,18,25.10
2020,08,18,13,19,25.10
2020,08,18,13,20,25.10
2020,08,18,13,21,25.00
2020,08,18,13,22,24.90
2020,08,18,13,23,24.80
2020,08,18,13,24,24.80
2020,08,18,13,25,24.80
2020,08,18,13,26,24.70
2020,08,18,13,27,24.70
2020,08,18,13,28,24.70
2020,08,18,13,29,24.70
2020,08,18,13,30,24.80
2020,08,18,13,31,25.00
2020,08,18,13,32,25.10
2020,08,18,13,33,25.20
2020,08,18,13,34,25.30
2020,08,18,13,35,25.40
2020,08,18,13,36,25.40
2020,08,18,13,37,25.30
2020,08,18,13,38,25.20
2020,08,18,13,39,25.10
2020,08,18,13,40,25.10
2020,08,18,13,41,25.00
2020,08,18,13,42,24.90
2020,08,18,13,43,24.90
2020,08,18,13,44,24.90
2020,08,18,13,45,24.80
2020,08,18,13,46,24.80
2020,08,18,13,47,24.80
2020,08,18,13,48,24.80
2020,08,18,13,49,24.80
2020,08,18,13,50,24.90
2020,08,18,13,51,24.90
2020,08,18,13,52,25.00
2020,08,18,13,53,25.10
2020,08,18,13,54,25.20
2020,08,18,13,55,25.30
2020,08,18,13,56,25.30
2020,08,18,13,57,25.40
2020,08,18,13,58,25.30
2020,08,18,13,59,25.30
2020,08,18,14,00,25.20
2020,08,18,14,01,25.10
2020,08,18,14,02,25.00
2020,08,18,14,03,25.00
2020,08,18,14,04,25.00
2020,08,18,14,05,25.00
2020,08,18,14,06,25.00
2020,08,18,14,07,25.10
2020,08,18,14,08,25.20
2020,08,18,14,09,25.20
2020,08,18,14,10,25.20
2020,08,18,14,11,25.20
2020,08,18,14,12,25.20
2020,08,18,14,13,25.10
2020,08,18,14,14,25.10
2020,08,18,14,15,25.00
2020,08,18,14,16,25.00
2020,08,18,14,17,25.00
2020,08,18,14,18,25.00
2020,08,18,14,19,25.00
2020,08,18,14,20,25.10
2020,08,18,14,21,25.10
2020,08,18,14,22,25.10
2020,08,18,14,23,25.20
2020,08,18,14,24,25.10
2020,08,18,14,25,25.10
2020,08,18,14,26,25.00
2020,08,18,14,27,24.90
2020,08,18,14,28,24.80
2020,08,18,14,29,24.70
2020,08,18,14,30,24.70
2020,08,18,14,31,24.60
2020,08,18,14,32,24.60
2020,08,18,14,33,24.60
2020,08,18,14,34,24.70
2020,08,18,14,35,24.70
2020,08,18,14,36,24.80
2020,08,18,14,37,24.80
2020,08,18,14,38,24.80
2020,08,18,14,39,24.80
2020,08,18,14,40,24.80
2020,08,18,14,41,24.80
2020,08,18,14,42,24.80
2020,08,18,14,43,24.90
2020,08,18,14,44,25.00
2020,08,18,14,45,25.00
2020,08,18,14,46,25.00
2020,08,18,14,47,24.90
2020,08,18,14,48,24.90
2020,08,18,14,49,24.90
2020,08,18,14,50,25.00
2020,08,18,14,51,25.00
2020,08,18,14,52,25.00
2020,08,18,14,53,25.00
2020,08,18,14,54,25.00
2020,08,18,14,55,25.10
2020,08,18,14,56,25.10
2020,08,18,14,57,25.20
2020,08,18,14,58,25.30
2020,08,18,14,59,25.30
2020,08,18,15,00,25.30
2020,08,18,15,01,25.30
2020,08,18,15,02,25.40
2020,08,18,15,03,25.30
2020,08,18,15,04,25.30
2020,08,18,15,05,25.40
2020,08,18,15,06,25.40
2020,08,18,15,07,25.50
2020,08,18,15,08,25.50
2020,08,18,15,09,25.60
2020,08,18,15,10,25.80
2020,08,18,15,11,25.80
2020,08,18,15,12,25.80
2020,08,18,15,13,25.70
2020,08,18,15,14,25.70
2020,08,18,15,15,25.70
2020,08,18,15,16,25.70
2020,08,18,15,17,25.70
2020,08,18,15,18,25.80
2020,08,18,15,19,25.80
2020,08,18,15,20,25.90
2020,08,18,15,21,25.90
2020,08,18,15,22,25.90
2020,08,18,15,23,25.90
2020,08,18,15,24,26.00
2020,08,18,15,25,26.00
2020,08,18,15,26,26.00
2020,08,18,15,27,26.10
2020,08,18,15,28,26.10
2020,08,18,15,29,26.20
2020,08,18,15,30,26.20
2020,08,18,15,31,26.30
2020,08,18,15,32,26.30
2020,08,18,15,33,26.30
2020,08,18,15,34,26.30
2020,08,18,15,35,26.30
2020,08,18,15,36,26.30
2020,08,18,15,37,26.20
2020,08,18,15,38,26.20
2020,08,18,15,39,26.20
2020,08,18,15,40,26.20
2020,08,18,15,41,26.20
2020,08,18,15,42,26.20
2020,08,18,15,43,26.30
2020,08,18,15,44,26.40
2020,08,18,15,45,26.50
2020,08,18,15,46,26.50
2020,08,18,15,47,26.40
2020,08,18,15,48,26.30
2020,08,18,15,49,26.30
2020,08,18,15,50,26.40
2020,08,18,15,51,26.40
2020,08,18,15,52,26.40
2020,08,18,15,53,26.40
2020,08,18,15,54,26.40
2020,08,18,15,55,26.30
2020,08,18,15,56,26.30
2020,08,18,15,57,26.30
2020,08,18,15,58,26.10
2020,08,18,15,59,26.10
2020,08,18,16,00,26.00
2020,08,18,16,01,25.90
2020,08,18,16,02,25.90
2020,08,18,16,03,25.90
2020,08,18,16,04,25.90
2020,08,18,16,05,25.80
2020,08,18,16,06,25.80
2020,08,18,16,07,25.70
2020,08,18,16,08,25.60
2020,08,18,16,09,25.60
2020,08,18,16,10,25.60
2020,08,18,16,11,25.50
2020,08,18,16,12,25.50
2020,08,18,16,13,25.50
2020,08,18,16,14,25.50
2020,08,18,16,15,25.50
2020,08,18,16,16,25.50
2020,08,18,16,17,25.40
2020,08,18,16,18,25.40
2020,08,18,16,19,25.40
2020,08,18,16,20,25.40
2020,08,18,16,21,25.50
2020,08,18,16,22,25.50
2020,08,18,16,23,25.50
2020,08,18,16,24,25.50
2020,08,18,16,25,25.60
2020,08,18,16,26,25.70
2020,08,18,16,27,25.70
2020,08,18,16,28,25.70
2020,08,18,16,29,25.70
2020,08,18,16,30,25.70
2020,08,18,16,31,25.70
2020,08,18,16,32,25.80
2020,08,18,16,33,25.90
2020,08,18,16,34,25.90
2020,08,18,16,35,26.00
2020,08,18,16,36,26.00
2020,08,18,16,37,26.10
2020,08,18,16,38,26.20
2020,08,18,16,39,26.20
2020,08,18,16,40,26.20
2020,08,18,16,41,26.20
2020,08,18,16,42,26.10
2020,08,18,16,43,26.10
2020,08,18,16,44,26.00
2020,08,18,16,45,25.90
2020,08,18,16,46,26.00
2020,08,18,16,47,26.00
2020,08,18,16,48,26.00
2020,08,18,16,49,26.00
2020,08,18,16,50,26.00
2020,08,18,16,51,25.90
2020,08,18,16,52,25.90
2020,08,18,16,53,25.90
2020,08,18,16,54,25.90
2020,08,18,16,55,26.00
2020,08,18,16,56,26.10
2020,08,18,16,57,26.10
2020,08,18,16,58,26.20
2020,08,18,16,59,26.30
2020,08,18,17,00,26.30
2020,08,18,17,01,26.30
2020,08,18,17,02,26.20
2020,08,18,17,03,26.20
2020,08,18,17,04,26.20
2020,08,18,17,05,26.10
2020,08,18,17,06,26.10
2020,08,18,17,07,26.10
2020,08,18,17,08,26.10
2020,08,18,17,09,26.20
2020,08,18,17,10,26.20
2020,08,18,17,11,26.10
2020,08,18,17,12,26.10
2020,08,18,17,13,26.10
2020,08,18,17,14,26.00
2020,08,18,17,15,26.00
2020,08,18,17,16,25.90
2020,08,18,17,17,25.90
2020,08,18,17,18,25.90
2020,08,18,17,19,26.00